DW9007 Weather Reports


Display with metric or nautical units.
time (UTC)temp
F
wind
direction
speed
MPH
gust
MPH
rain 1hr
in
rain 24hr
in
rain mn
in
humidity
%
barometer
mb
20260905011519 85 96 0.0 0.0 0.00 0.00 0.00 71 1012.1
20260905010113 85 96 0.0 0.0 0.00 0.00 0.00 69 1012.1
20260905004611 86 96 0.0 0.0 0.00 0.00 0.00 66 1012.0
20260905003037 87 96 0.0 0.0 0.00 0.00 0.00 65 1012.0
20260905001534 89 96 0.0 0.0 0.00 0.00 0.00 63 1012.0
20260905000030 90 96 0.0 0.0 0.00 0.00 0.00 62 1012.0
20260904234526 91 96 0.0 0.0 0.00 0.00 0.00 61 1012.0
20260904233023 92 96 0.0 0.0 0.00 0.00 0.00 58 1012.0
20260904231525 93 96 0.0 1.0 0.00 0.00 0.00 56 1011.7
20260904230016 94 96 0.0 2.0 0.00 0.00 0.00 54 1011.5
20260904224522 95 92 0.0 3.0 0.00 0.00 0.00 53 1011.5
20260904223058 95 223 0.0 2.0 0.00 0.00 0.00 51 1011.3
20260904221602 95 199 0.0 2.0 0.00 0.00 0.00 51 1011.3
20260904220039 95 148 0.0 3.0 0.00 0.00 0.00 51 1011.3
20260904214539 95 32 0.0 3.0 0.00 0.00 0.00 52 1011.2
20260904213028 95 90 0.0 8.0 0.00 0.00 0.00 51 1011.2
20260904211521 95 101 0.0 4.0 0.00 0.00 0.00 52 1011.2
20260904210004 95 102 0.0 4.0 0.00 0.00 0.00 51 1011.5
20260904204601 96 96 0.0 3.0 0.00 0.00 0.00 50 1011.5
20260904203108 95 274 0.0 6.0 0.00 0.00 0.00 52 1011.6
20260904201539 95 61 0.0 4.0 0.00 0.00 0.00 51 1011.9
20260904200038 96 84 1.0 5.0 0.00 0.00 0.00 52 1012.1
20260904194516 95 70 0.0 5.0 0.00 0.00 0.00 53 1012.3
20260904193013 94 22 0.0 5.0 0.00 0.00 0.00 54 1012.5
20260904191551 94 94 1.0 6.0 0.00 0.00 0.00 54 1012.9
20260904190050 94 64 0.0 5.0 0.00 0.00 0.00 55 1013.0
20260904184530 94 117 1.0 8.0 0.00 0.00 0.00 56 1013.3
20260904183030 93 96 1.0 7.0 0.00 0.00 0.00 59 1013.4
20260904181512 92 109 0.0 3.0 0.00 0.00 0.00 61 1013.7
20260904180012 92 91 1.0 9.0 0.00 0.00 0.00 60 1014.0
20260904174606 92 107 0.0 4.0 0.00 0.00 0.00 63 1014.1
20260904173104 92 103 0.0 4.0 0.00 0.00 0.00 62 1014.3
20260904171542 91 101 3.0 7.0 0.00 0.00 0.00 61 1014.6
20260904170036 91 15 1.0 5.0 0.00 0.00 0.00 63 1014.7
20260904164517 90 82 0.0 7.0 0.00 0.00 0.00 65 1014.8
20260904163017 90 169 0.0 2.0 0.00 0.00 0.00 70 1015.1
20260904161608 90 300 0.0 4.0 0.00 0.00 0.00 69 1015.2
20260904160100 89 209 0.0 3.0 0.00 0.00 0.00 70 1015.2
20260904154540 88 100 0.0 2.0 0.00 0.00 0.00 72 1015.3
20260904153039 86 77 0.0 3.0 0.00 0.00 0.00 73 1015.2
20260904151520 85 126 0.0 2.0 0.00 0.00 0.00 77 1015.1
20260904150020 84 198 0.0 2.0 0.00 0.00 0.00 78 1014.9
20260904144601 83 173 0.0 1.0 0.00 0.00 0.00 82 1014.9
20260904143100 82 173 0.0 0.0 0.00 0.00 0.00 84 1014.8
20260904141543 81 194 0.0 1.0 0.00 0.00 0.00 87 1014.8
20260904140042 80 195 0.0 0.0 0.00 0.00 0.00 89 1014.8
20260904134530 79 196 0.0 1.0 0.00 0.00 0.00 91 1014.8
20260904133025 77 245 0.0 0.0 0.00 0.00 0.00 92 1014.9
20260904131506 77 246 0.0 0.0 0.00 0.00 0.00 93 1014.8
20260904130004 76 246 0.0 0.0 0.00 0.00 0.00 94 1014.7
20260904124546 75 246 0.0 0.0 0.00 0.00 0.00 94 1014.5
20260904123045 74 246 0.0 0.0 0.00 0.00 0.00 94 1014.4
20260904121525 74 246 0.0 0.0 0.00 0.00 0.00 94 1014.2
20260904120022 74 246 0.0 0.0 0.00 0.00 0.00 94 1014.1
20260904114504 74 246 0.0 0.0 0.00 0.00 0.00 94 1014.0
20260904113009 74 246 0.0 0.0 0.00 0.00 0.00 93 1013.8
20260904111545 74 246 0.0 0.0 0.00 0.00 0.00 94 1013.7
20260904110044 74 246 0.0 0.0 0.00 0.00 0.00 94 1013.5
20260904104525 74 246 0.0 0.0 0.00 0.00 0.00 93 1013.4
20260904103029 74 246 0.0 0.0 0.00 0.00 0.00 93 1013.3
20260904101505 74 246 0.0 0.0 0.00 0.00 0.00 93 1013.2
20260904100005 75 246 0.0 0.0 0.00 0.00 0.00 93 1013.2
20260904094547 75 246 0.0 0.0 0.00 0.00 0.00 92 1013.2
20260904093045 75 246 0.0 0.0 0.00 0.00 0.00 92 1013.1
20260904091528 75 246 0.0 0.0 0.00 0.00 0.00 92 1013.1
20260904090026 76 246 0.0 0.0 0.00 0.00 0.00 92 1013.2
20260904084510 76 246 0.0 0.0 0.00 0.00 0.00 92 1013.1
20260904083008 76 246 0.0 0.0 0.00 0.00 0.00 92 1013.2
20260904081550 76 246 0.0 0.0 0.00 0.00 0.00 91 1013.1
20260904080047 76 246 0.0 0.0 0.00 0.00 0.00 91 1013.2
20260904074544 77 246 0.0 0.0 0.00 0.00 0.00 91 1013.2
20260904073034 77 246 0.0 0.0 0.00 0.00 0.00 91 1013.2
20260904071509 77 246 0.0 0.0 0.00 0.00 0.00 91 1013.2
20260904070011 77 246 0.0 0.0 0.00 0.00 0.00 91 1013.2
20260904064550 77 246 0.0 0.0 0.00 0.00 0.00 90 1013.2
20260904063055 77 246 0.0 0.0 0.00 0.00 0.00 90 1013.3
20260904061538 77 246 0.0 0.0 0.00 0.00 0.00 89 1013.3
20260904060030 77 246 0.0 0.0 0.00 0.00 0.00 89 1013.3
20260904054515 78 246 0.0 0.0 0.00 0.00 0.00 89 1013.3
20260904053017 78 246 0.0 0.0 0.00 0.00 0.00 88 1013.4
20260904051552 78 246 0.0 0.0 0.00 0.00 0.00 88 1013.4
20260904050052 78 246 0.0 0.0 0.00 0.00 0.00 88 1013.3
20260904044532 79 246 0.0 0.0 0.00 0.00 0.00 87 1013.3
20260904043031 79 246 0.0 0.0 0.00 0.00 0.00 86 1013.4
20260904041514 79 246 0.0 0.0 0.00 0.00 0.00 86 1013.5
20260904040011 79 246 0.0 0.0 0.00 0.00 0.00 85 1013.5
20260904034556 80 246 0.0 0.0 0.00 0.00 0.00 85 1013.5
20260904033050 80 246 0.0 0.0 0.00 0.00 0.00 84 1013.6
20260904031537 81 246 0.0 0.0 0.00 0.00 0.00 82 1013.7
20260904030036 81 246 0.0 0.0 0.00 0.00 0.00 82 1013.7
20260904024534 81 246 0.0 0.0 0.00 0.00 0.00 80 1013.9
20260904023034 82 246 0.0 0.0 0.00 0.00 0.00 79 1013.9
20260904021536 83 246 0.0 0.0 0.00 0.00 0.00 78 1013.8
20260904020027 83 246 0.0 0.0 0.00 0.00 0.00 77 1013.7
20260904014528 84 246 0.0 0.0 0.00 0.00 0.00 75 1013.5
20260904013024 84 246 0.0 0.0 0.00 0.00 0.00 74 1013.4